Regional Weather Roundup
Issued by NWS

Home | Current Version | Previous Version | Graphics & Text | Print | Product List | Glossary On
Versions: 1 2 3 4 5 6 7 8 9 10 11 12 13 14 15 16 17 18 19 20 21 22 23 24 25 26 27 28 29 30 31 32 33 34 35 36 37 38 39 40 41 42 43 44 45 46 47 48 49 50
000
ASUS43 KMKX 271521
RWRWI

WISCONSIN REGIONAL WEATHER ROUNDUP
NATIONAL WEATHER SERVICE MILWAUKEE/SULLIVAN WI
1000 AM CDT MON MAR 27 2017

NOTE: "FAIR" INDICATES FEW OR NO CLOUDS BELOW 12,000 FEET WITH NO
SIGNIFICANT WEATHER AND/OR OBSTRUCTIONS TO VISIBILITY.

WIZ001-002-006>008-014>016-023>028-271600-
NORTHWEST WISCONSIN

CITY           SKY/WX    TMP DP  RH WIND       PRES   REMARKS
SUPERIOR ARPT  CLOUDY    36  35  96 CALM      29.99R
ASHLAND        CLOUDY    35  33  92 SW5       29.98R WCI  31
HAYWARD        CLOUDY    38  34  85 VRB3      29.96R
SIREN          PTSUNNY   37  37 100 CALM      29.98S
CUMBERLAND     CLOUDY    36  34  93 N8        29.96S WCI  29
RICE LAKE      DRIZZLE   37  35  94 CALM      29.97S
CHETEK         DRIZZLE   36  35  97 CALM      29.96R
LADYSMITH      CLOUDY    37  35  94 N5        29.96R WCI  33
EAU CLAIRE     CLOUDY    39  34  82 NE5       29.95R
MENOMONIE      CLOUDY    39  36  87 N7        29.96R WCI  34
NEW RICHMOND   CLOUDY    38  38 100 N7        29.97R WCI  33
OSCEOLA        CLOUDY    39  39 100 CALM      30.00S
$$

WIZ003>005-009-010-017-018-271600-
NORTH CENTRAL WISCONSIN

CITY           SKY/WX    TMP DP  RH WIND       PRES   REMARKS
MANITOWISH WTR CLOUDY    33  33 100 N5        29.93S WCI  28
ARBOR VITAE    CLOUDY    37  36  96 NE5       29.91S WCI  33
WOODRUFF       CLOUDY    37  36  96 NE5       29.91S WCI  33
RHINELANDER    CLOUDY    37  35  92 VRB3      29.92S
EAGLE RIVER    CLOUDY    35  34  98 N6        29.92R WCI  30
LAND O LAKES   CLOUDY    33  33  99 N5        29.94F WCI  29
PHILLIPS       CLOUDY    35  34  97 N6        29.92S WCI  30
TOMAHAWK       CLOUDY    34  33  96 CALM      29.93S
MEDFORD        CLOUDY    35  33  93 NE7       29.91S WCI  29
MERRILL        CLOUDY    35  35  98 N5        29.93S WCI  31
$$

WIZ029-030-035-036-043>047-271600-
CENTRAL WISCONSIN

CITY           SKY/WX    TMP DP  RH WIND       PRES   REMARKS
WAUSAU         CLOUDY    37  34  89 NE6       29.91S WCI  32
MOSINEE        CLOUDY    37  37 100 NE6       29.92F WCI  33
MARSHFIELD     CLOUDY    38  35  89 E3        29.91S
STEVENS POINT  CLOUDY    37  37 100 CALM      29.93S
WAUPACA        CLOUDY    42  41  97 CALM      29.94S
WAUTOMA        CLOUDY    41  39  93 CALM      29.95S
WISC RAPIDS    CLOUDY    41  39  93 CALM      29.94S
CAMP DOUGLAS   CLOUDY    43  41  93 N3        29.93S
$$

WIZ011>013-019>022-031-037>040-048>050-271600-
NORTHEAST WISCONSIN

CITY           SKY/WX    TMP DP  RH WIND       PRES   REMARKS
ANTIGO         CLOUDY    35  34  96 NE7       29.92S WCI  29
SHAWANO        CLOUDY    41  37  85 CALM      29.95R
OCONTO         CLOUDY    39  35  84 N5        29.94R
STURGEON BAY   CLOUDY    37  36  96 N6        29.91F WCI  32
GREEN BAY      CLOUDY    41  38  89 NE5       29.95R
MANITOWOC      CLOUDY    40  36  86 CALM      29.96R
APPLETON       CLOUDY    39  39 100 VRB5      29.92S
CLINTONVILLE   CLOUDY    39  36  87 NE3       29.94R
OSHKOSH        CLOUDY    41  38  89 CALM      29.94S
$$

WIZ032>034-041-042-053>061-271600-
SOUTHWEST WISCONSIN

CITY           SKY/WX    TMP DP  RH WIND       PRES   REMARKS
LA CROSSE      FOG       43  42  97 NW6       29.94S VSB 1
SPARTA         CLOUDY    40  39  97 CALM      29.95S
VIROQUA        CLOUDY    40  40 100 N3        29.92S
BOSCOBEL       CLOUDY    45  41  86 NE3       29.94S
PRAIRIE DU CHI FOG       42  41  96 CALM      29.94S VSB 1
PLATTEVILLE    CLOUDY    44  44 100 NE3       29.94R
$$

WIZ056-057-062-063-064-067-068-271600-
SOUTH CENTRAL WISCONSIN

CITY           SKY/WX    TMP DP  RH WIND       PRES   REMARKS
REEDSBURG      CLOUDY    41  41 100 CALM      29.93S
BARABOO/DELLS  CLOUDY    41  40  97 CALM      29.94R
LONE ROCK      CLOUDY    45  40  82 CALM      29.94S
MINERAL POINT  CLOUDY    43  43 100 NE5       29.93R
MADISON        CLOUDY    43  40  89 N5        29.94S
MIDDLETON      CLOUDY    44  43  98 CALM      29.94S
WATERTOWN      CLOUDY    41  41  99 CALM      29.95R
MONROE         CLOUDY    43  43 100 NE6       29.93S
JANESVILLE     CLOUDY    46  43  87 CALM      29.94S
$$

WIZ051-052-058>065-066-070>072-271600-
SOUTHEAST WISCONSIN

CITY           SKY/WX    TMP DP  RH WIND       PRES   REMARKS
MILWAUKEE      CLOUDY    44  39  82 NE5       29.96R FOG
WAUKESHA       CLOUDY    39  39 100 CALM      29.96R FOG
MILWAUKEE/TIMM CLOUDY    43  37  81 CALM      29.97R
RACINE         CLOUDY    44  39  82 N3        29.97S
KENOSHA        CLOUDY    45  41  86 CALM      29.95S
FOND DU LAC    CLOUDY    42  37  82 CALM      29.95R
SHEBOYGAN      CLOUDY    41  36  82 CALM      29.95S
WEST BEND      CLOUDY    41  41 100 N3        29.95R
JUNEAU         CLOUDY    40  39  96 CALM      29.95S
$$

LSZ147-162-271600-
LAKE SUPERIOR

STATION/POSITION TIME  TEMP    WIND        PRES    WAVE
                       AIR SEA DIR/SP/G            HT/PER
                 (UTC) (F)     (DEG/KT/KT) (MB)    (FT/S)
DEVILS ISLAND    1500   33     220/  8/ 10 1016.1R
PORT WING        1440   36     210/  2/  6 1015.6R
SAXON HARBOR     1440   35     180/  3/  5 1014.9S
$$

LMZ867-665-643>646-271600-
LAKE MICHIGAN

STATION/POSITION TIME  TEMP    WIND        PRES    WAVE
                       AIR SEA DIR/SP/G            HT/PER
                 (UTC) (F)     (DEG/KT/KT) (MB)    (FT/S)
CHAMBERS ISLAND  1440   38     320/  2/  5 1013.2S
NORTHPORT PIER   1440   35     310/  7/  8 1013.5F
KEWAUNEE LAKESHO 1454   36      90/  2/  5 1013.8R
SHEBOYGAN LAKESH 1500   38     130/  2/  3 1014.7R
PORT WASHINGTON  1430   41      70/  2/  4 1015.2S
MILWAUKEE LAKESH 1500   40     100/  4/  4   N/A
KENOSHA   LAKESH 1500   43      30/  2/  3 1014.6
$$

TC  - TEMPERATURE IN CELSIUS
VSB - VISIBILITY IN STATUTE MILES
WCI - WIND CHILL INDEX
HX  - HEAT INDEX




USA.gov is the U.S. government's official web portal to all federal, state and local government web resources and services.